When you browse on this site, cookies collect data to enhance your experience and personalize the content and advertising you see.
Visit our Privacy Policy to learn more. By continuing to use the site, you agree to this use of cookies and data.
  • In Czech Republic
  • List of Countries
  • For 7 days
  • Water Temperature
  • Weather Map
  • Weather Widgets
  • user-avatar
    Login

    Hourly Weather Melbourne

    Today, 8 December, Sunday

    Time Temperature Precipitation Wind Pressure Humidity
    00:00 +13°C° 0 mm 1 mps 762 mmHg 83%
    01:00 +13°C° 0 mm 1 mps 762 mmHg 84%
    02:00 +13°C° 0 mm 1 mps 762 mmHg 84%
    03:00 +13°C° 0 mm 1 mps 762 mmHg 83%
    04:00 +14°C° 0 mm 1 mps 762 mmHg 85%
    05:00 +14°C° 0 mm 1 mps 762 mmHg 81%
    06:00 +15°C° 0 mm 1 mps 763 mmHg 77%
    07:00 +16°C° 0 mm 1 mps 763 mmHg 73%
    08:00 +19°C° 0 mm 1 mps 763 mmHg 63%
    09:00 +20°C° 0 mm 2 mps 763 mmHg 54%
    10:00 +23°C° 0 mm 1 mps 762 mmHg 43%
    11:00 +25°C° 0 mm 2 mps 762 mmHg 39%
    12:00 +26°C° 0 mm 2 mps 762 mmHg 35%
    13:00 +28°C° 0 mm 3 mps 761 mmHg 31%
    14:00 +28°C° 0 mm 3 mps 761 mmHg 32%
    15:00 +28°C° 0 mm 3 mps 761 mmHg 34%
    16:00 +27°C° 0 mm 3 mps 760 mmHg 36%
    17:00 +26°C° 0 mm 3 mps 761 mmHg 42%
    18:00 +24°C° 0 mm 2 mps 761 mmHg 48%
    19:00 +23°C° 0 mm 2 mps 761 mmHg 54%
    20:00 +21°C° 0 mm 2 mps 761 mmHg 58%
    21:00 +21°C° 0 mm 1 mps 761 mmHg 62%
    22:00 +20°C° 0 mm 1 mps 761 mmHg 66%
    23:00 +19°C° 0 mm 1 mps 761 mmHg 65%

    Tomorrow, 9 December, Monday

    Time Temperature Precipitation Wind Pressure Humidity
    00:00 +19°C° 0 mm 1 mps 761 mmHg 64%
    01:00 +19°C° 0 mm 1 mps 760 mmHg 64%
    02:00 +18°C° 0 mm 2 mps 760 mmHg 59%
    03:00 +19°C° 0 mm 2 mps 759 mmHg 54%
    04:00 +19°C° 0 mm 2 mps 759 mmHg 49%
    05:00 +21°C° 0 mm 3 mps 759 mmHg 45%
    06:00 +23°C° 0 mm 4 mps 759 mmHg 41%
    07:00 +26°C° 0 mm 5 mps 759 mmHg 37%
    08:00 +28°C° 0 mm 5 mps 759 mmHg 33%
    09:00 +30°C° 0 mm 6 mps 759 mmHg 28%
    10:00 +33°C° 0 mm 6 mps 759 mmHg 24%
    11:00 +35°C° 0 mm 6 mps 759 mmHg 21%
    12:00 +37°C° 0 mm 5 mps 758 mmHg 18%
    13:00 +40°C° 0 mm 5 mps 757 mmHg 15%
    14:00 +41°C° 0 mm 5 mps 757 mmHg 13%
    15:00 +41°C° 0 mm 4 mps 756 mmHg 11%
    16:00 +42°C° 0 mm 4 mps 755 mmHg 9%
    17:00 +38°C° 0 mm 6 mps 756 mmHg 16%
    18:00 +34°C° 0 mm 7 mps 756 mmHg 22%
    19:00 +29°C° 0 mm 8 mps 756 mmHg 28%
    20:00 +27°C° 0 mm 6 mps 757 mmHg 35%
    21:00 +25°C° 0 mm 4 mps 758 mmHg 42%
    22:00 +21°C° 0 mm 2 mps 759 mmHg 49%
    23:00 +20°C° 0 mm 2 mps 759 mmHg 55%

    Day after tomorrow, 10 December, Tuesday

    Time Temperature Precipitation Wind Pressure Humidity
    00:00 +20°C° 0 mm 2 mps 759 mmHg 62%
    01:00 +19°C° 0 mm 3 mps 758 mmHg 69%
    02:00 +18°C° 0 mm 3 mps 759 mmHg 73%
    03:00 +17°C° 0 mm 3 mps 759 mmHg 77%
    04:00 +16°C° 0 mm 3 mps 759 mmHg 82%
    05:00 +15°C° 0 mm 4 mps 760 mmHg 80%
    06:00 +15°C° 0 mm 4 mps 760 mmHg 79%
    07:00 +15°C° 0 mm 4 mps 761 mmHg 78%
    08:00 +17°C° 0 mm 4 mps 761 mmHg 74%
    09:00 +17°C° 0 mm 4 mps 761 mmHg 70%
    10:00 +17°C° 0 mm 5 mps 761 mmHg 67%
    11:00 +17°C° 0 mm 5 mps 761 mmHg 62%
    12:00 +19°C° 0 mm 5 mps 760 mmHg 58%
    13:00 +20°C° 0 mm 5 mps 760 mmHg 54%
    14:00 +20°C° 0 mm 5 mps 760 mmHg 53%
    15:00 +19°C° 0 mm 5 mps 760 mmHg 52%
    16:00 +19°C° 0 mm 5 mps 760 mmHg 51%
    17:00 +17°C° 0 mm 5 mps 760 mmHg 56%
    18:00 +16°C° 0 mm 5 mps 761 mmHg 61%
    19:00 +14°C° 0 mm 5 mps 761 mmHg 66%
    20:00 +14°C° 0 mm 4 mps 761 mmHg 68%
    21:00 +13°C° 0 mm 4 mps 762 mmHg 71%
    22:00 +12°C° 0 mm 3 mps 762 mmHg 74%
    23:00 +12°C° 0 mm 3 mps 762 mmHg 75%

    11 December, Wednesday

    Time Temperature Precipitation Wind Pressure Humidity
    00:00 +12°C° 0 mm 3 mps 761 mmHg 76%
    01:00 +11°C° 0 mm 3 mps 761 mmHg 78%
    02:00 +12°C° 0 mm 3 mps 761 mmHg 77%
    03:00 +12°C° 0 mm 3 mps 761 mmHg 77%
    04:00 +12°C° 0 mm 3 mps 760 mmHg 76%
    05:00 +12°C° 0 mm 3 mps 760 mmHg 75%
    06:00 +12°C° 0 mm 3 mps 760 mmHg 73%
    07:00 +13°C° 0 mm 3 mps 760 mmHg 71%
    08:00 +14°C° 0 mm 3 mps 760 mmHg 67%
    09:00 +16°C° 0 mm 3 mps 760 mmHg 63%
    10:00 +17°C° 0 mm 3 mps 760 mmHg 59%
    11:00 +18°C° 0 mm 4 mps 760 mmHg 56%
    12:00 +19°C° 0 mm 4 mps 759 mmHg 52%
    13:00 +21°C° 0 mm 4 mps 759 mmHg 48%
    14:00 +20°C° 0 mm 5 mps 758 mmHg 49%
    15:00 +20°C° 0 mm 5 mps 758 mmHg 51%
    16:00 +20°C° 0 mm 6 mps 758 mmHg 52%
    17:00 +19°C° 0 mm 5 mps 758 mmHg 57%
    18:00 +17°C° 0 mm 5 mps 759 mmHg 62%
    19:00 +17°C° 0 mm 4 mps 759 mmHg 67%
    20:00 +15°C° 0 mm 4 mps 759 mmHg 72%
    21:00 +14°C° 0 mm 3 mps 760 mmHg 76%
    22:00 +14°C° 0 mm 2 mps 760 mmHg 80%
    23:00 +14°C° 0 mm 2 mps 760 mmHg 82%

    12 December, Thursday

    Time Temperature Precipitation Wind Pressure Humidity
    00:00 +13°C° 0 mm 3 mps 760 mmHg 83%
    01:00 +12°C° 0 mm 3 mps 759 mmHg 84%
    02:00 +13°C° 0 mm 2 mps 759 mmHg 84%
    03:00 +13°C° 0 mm 2 mps 759 mmHg 84%
    04:00 +13°C° 0 mm 2 mps 759 mmHg 84%
    05:00 +14°C° 0 mm 2 mps 759 mmHg 80%
    06:00 +14°C° 0 mm 2 mps 759 mmHg 76%
    07:00 +15°C° 0 mm 2 mps 759 mmHg 71%
    08:00 +16°C° 0 mm 3 mps 759 mmHg 66%
    09:00 +18°C° 0 mm 3 mps 759 mmHg 60%
    10:00 +19°C° 0 mm 4 mps 759 mmHg 54%
    11:00 +20°C° 0 mm 4 mps 759 mmHg 51%
    12:00 +20°C° 0 mm 5 mps 758 mmHg 48%
    13:00 +21°C° 0 mm 6 mps 758 mmHg 45%
    14:00 +20°C° 0 mm 6 mps 758 mmHg 46%
    15:00 +20°C° 0 mm 7 mps 759 mmHg 48%
    16:00 +18°C° 0 mm 7 mps 759 mmHg 50%
    17:00 +17°C° 0 mm 7 mps 759 mmHg 54%
    18:00 +15°C° 0 mm 7 mps 760 mmHg 59%
    19:00 +14°C° 0 mm 7 mps 761 mmHg 63%
    20:00 +13°C° 0 mm 6 mps 761 mmHg 66%
    21:00 +12°C° 0 mm 5 mps 762 mmHg 69%
    22:00 +11°C° 0 mm 4 mps 763 mmHg 72%
    23:00 +11°C° 0 mm 3 mps 762 mmHg 71%

    13 December, Friday

    Time Temperature Precipitation Wind Pressure Humidity
    00:00 +11°C° 0 mm 3 mps 762 mmHg 69%
    01:00 +12°C° 0 mm 3 mps 762 mmHg 68%
    02:00 +11°C° 0 mm 3 mps 762 mmHg 69%
    03:00 +11°C° 0 mm 3 mps 762 mmHg 71%
    04:00 +11°C° 0 mm 3 mps 762 mmHg 72%
    05:00 +11°C° 0 mm 3 mps 762 mmHg 69%
    06:00 +12°C° 0 mm 3 mps 762 mmHg 65%
    07:00 +12°C° 0 mm 3 mps 763 mmHg 62%
    08:00 +13°C° 0 mm 3 mps 763 mmHg 58%
    09:00 +14°C° 0 mm 4 mps 763 mmHg 55%
    10:00 +15°C° 0 mm 4 mps 763 mmHg 51%
    11:00 +17°C° 0 mm 4 mps 762 mmHg 49%
    12:00 +17°C° 0 mm 5 mps 762 mmHg 47%
    13:00 +19°C° 0 mm 5 mps 762 mmHg 45%
    14:00 +19°C° 0 mm 5 mps 761 mmHg 44%
    15:00 +19°C° 0 mm 5 mps 761 mmHg 43%
    16:00 +19°C° 0 mm 5 mps 761 mmHg 42%
    17:00 +16°C° 0 mm 5 mps 761 mmHg 47%
    18:00 +15°C° 0 mm 4 mps 761 mmHg 53%
    19:00 +14°C° 0 mm 4 mps 762 mmHg 58%
    20:00 +13°C° 0 mm 4 mps 762 mmHg 62%
    21:00 +12°C° 0 mm 3 mps 763 mmHg 66%
    22:00 +11°C° 0 mm 3 mps 763 mmHg 70%
    23:00 +12°C° 0 mm 2 mps 763 mmHg 71%
    Show more